This demonstration page uses our WeatherBlox Daily Observations layout. Learn more.

Left ArrowRight Arrow

Hourly Observations for April 19, 2016

Temp ( °F °C ) Dew Point ( °F °C ) Humidity (%) Winds ( mph kmh ) Pressure ( in mb ) Visibility ( mi km ) Precip ( " mm )
12:54 am 00:54 Cloudy 51 10.6 47 8.3 86 86 N 5 7 30.24 1024 10 16 0.00 0.00
1:01 am 01:01 Cloudy 51 10.6 47 8.3 86 86 N 6 9 30.27 1025 10 16 0.00 0.00
1:54 am 01:54 Cloudy 51 10.6 47 8.3 86 86 N 7 11 30.24 1024 10 16 0.00 0.00
2:17 am 02:17 Cloudy 52 11 46 8 82 82 NNW 7 11 30.27 1025 10 16 0.00 0.00
2:54 am 02:54 Cloudy 50 10 47 8.3 89 89 N 9 15 30.23 1024 7 11 0.00 0.00
3:49 am 03:49 Cloudy 48 9 46 8 94 94 N 6 9 30.24 1024 10 16 0.00 0.00
3:54 am 03:54 Cloudy 49 9.4 47 8.3 93 93 N 8 13 30.22 1023 10 16 0.00 0.00
4:04 am 04:04 Cloudy 48 9 46 8 94 94 N 8 13 30.24 1024 10 16 0.00 0.00
4:54 am 04:54 Cloudy 49 9.4 45 7.2 86 86 N 7 11 30.22 1023 10 16 0.00 0.00
5:40 am 05:40 Cloudy 48 9 45 7 87 87 N 6 9 30.24 1024 10 16 0.00 0.00
5:54 am 05:54 Cloudy 49 9.4 45 7.2 86 86 N 5 7 30.23 1024 10 16 0.00 0.00
6:54 am 06:54 Cloudy 49 9.4 44 6.7 83 83 N 3 6 30.24 1024 10 16 0.00 0.00
7:54 am 07:54 Cloudy 49 9.4 44 6.7 83 83 N 3 6 30.25 1024 10 16 0.00 0.00
8:54 am 08:54 Mostly Cloudy 51 10.6 45 7.2 80 80 Calm 30.25 1024 10 16 0.00 0.00
8:56 am 08:56 Mostly Cloudy 52 11 45 7 77 77 Calm 30.27 1025 10 16 0.00 0.00
9:54 am 09:54 Sunny 54 12.2 44 6.7 69 69 ENE 6 9 30.24 1024 10 16 0.00 0.00
10:54 am 10:54 Sunny 56 13.3 44 6.7 65 65 NE 6 9 30.24 1024 10 16 0.00 0.00
11:11 am 11:11 Mostly Cloudy 55 13 45 7 67 67 VRB 3 6 30.24 1024 10 16 0.00 0.00
11:26 am 11:26 Cloudy 55 13 45 7 67 67 NNW 6 9 30.24 1024 10 16 0.00 0.00
11:54 am 11:54 Cloudy 57 13.9 44 6.7 62 62 WNW 3 6 30.22 1024 10 16 0.00 0.00
12:54 pm 12:54 Cloudy 57 13.9 44 6.7 62 62 VRB 5 7 30.21 1023 10 16 0.00 0.00
1:54 pm 13:54 Cloudy 59 15 45 7.2 60 60 N 7 11 30.18 1022 10 16 0.00 0.00
2:54 pm 14:54 Mostly Cloudy 60 15.6 45 7.2 58 58 NE 5 7 30.17 1022 10 16 0.00 0.00
3:54 pm 15:54 Cloudy 61 16.1 45 7.2 56 56 NNE 7 11 30.16 1021 10 16 0.00 0.00
4:54 pm 16:54 Cloudy 62 16.7 46 7.8 56 56 VRB 3 6 30.13 1020 10 16 0.00 0.00
5:54 pm 17:54 Cloudy 60 15.6 45 7.2 58 58 NE 3 6 30.14 1021 10 16 0.00 0.00
6:54 pm 18:54 Cloudy 59 15 46 7.8 62 62 Calm 30.14 1021 10 16 0.00 0.00
7:54 pm 19:54 Cloudy 58 14.4 46 7.8 65 65 ENE 7 11 30.14 1021 10 16 0.00 0.00
8:54 pm 20:54 Mostly Clear 53 11.7 45 7.2 74 74 NE 7 11 30.12 1020 10 16 0.00 0.00
9:54 pm 21:54 Clear 52 11.1 47 8.3 83 83 N 5 7 30.12 1020 10 16 0.00 0.00
10:54 pm 22:54 Cloudy 55 12.8 47 8.3 74 74 NW 7 11 30.11 1020 10 16 0.00 0.00
11:54 pm 23:54 Cloudy with Light Rain 53 11.7 48 8.9 83 83 NNE 5 7 30.09 1019 10 16 0.00 0.03

Powered by AerisWeather